Temp
61 61 61 61 61 61 61 61 61 61 61 61 62 61 62 62 61 57 60 74 75 73 77 73 71 72 72 68 69 68 58 53 59 62 67 72 71 74 76 75 75 77 75 77 78
60 60 60 61 61 60 60 60 61 61 61 61 61 61 61 61 56 60 73 74 74 74 76 73 69 70 66 65 67 65 55 60 67 68 70 70 73 74 73 73 69 73 75 78 75
60 60 60 60 61 60 60 60 60 61 61 61 61 61 61 60 60 74 76 74 74 75 75 76 75 70 61 62 66 63 61 66 73 73 75 73 72 78 72 67 71 71 71 74 73
59 60 60 60 60 60 59 60 60 61 61 60 60 61 61 58 60 76 76 75 75 75 75 73 68 61 57 62 67 61 70 72 75 76 74 72 77 75 76 73 78 79 75 74 72
59 59 59 59 59 59 59 59 60 60 60 60 60 62 57 62 70 77 76 76 75 76 73 70 65 62 58 64 66 62 71 72 77 75 75 79 76 75 75 76 80 81 76 74 73
58 58 58 59 59 59 59 59 59 59 59 60 61 62 61 61 80 78 76 76 76 73 73 72 71 70 64 64 63 70 70 73 74 69 75 76 73 78 76 78 78 79 77 75 75
58 58 58 58 59 59 59 59 58 59 60 61 62 65 62 69 80 77 79 76 74 77 74 74 75 70 67 67 68 71 68 71 69 66 68 78 70 73 74 78 76 77 78 77 77
58 57 58 58 58 59 59 59 58 60 61 61 64 61 62 76 76 77 74 77 77 78 79 79 77 69 66 69 70 65 61 58 68 70 73 76 65 73 76 75 74 76 78 78 77
58 57 57 58 58 59 58 58 59 63 63 64 58 59 65 76 78 81 80 79 79 79 77 89 74 67 68 60 57 58 54 55 66 70 71 69 64 71 75 76 73 75 77 79 79
58 57 57 57 58 58 57 58 61 62 64 68 72 61 71 74 81 84 79 82 78 77 75 72 64 60 56 55 49 52 54 55 59 66 67 67 68 69 74 75 74 75 76 78 79
58 57 57 57 57 57 54 64 64 62 62 66 68 69 76 83 86 80 82 80 77 73 62 64 60 54 59 60 60 59 57 57 63 69 65 63 66 69 73 74 72 73 75 77 79
57 57 57 57 57 56 53 66 66 67 58 73 71 72 77 80 73 78 84 74 70 63 62 61 55 65 64 64 62 60 57 59 64 69 65 63 65 67 71 73 74 74 75 77 79
56 56 56 56 56 58 57 66 67 62 57 66 72 70 70 76 72 74 80 73 68 61 60 57 64 70 67 63 62 58 56 59 62 66 63 60 59 63 70 73 74 74 79 79 79
56 56 56 55 60 54 62 69 64 63 51 64 70 74 74 73 71 81 82 77 66 65 62 60 66 68 62 63 64 55 65 67 64 59 54 61 50 58 64 68 74 77 77 78 80
56 56 56 55 51 56 68 62 65 66 44 71 70 78 73 72 73 75 81 75 68 68 65 63 63 63 60 66 68 64 67 65 64 55 52 54 50 56 58 63 67 73 79 79 82
56 56 55 53 48 56 60 60 65 53 46 68 74 69 66 69 73 74 75 78 74 66 63 66 68 69 68 71 70 71 62 58 52 50 45 52 53 51 61 67 66 71 73 77 79
55 55 53 57 59 59 61 62 50 45 67 65 67 71 66 66 69 70 68 64 61 53 54 62 66 67 72 63 64 61 53 45 44 44 44 52 49 53 65 68 70 74 76 77 76
54 53 52 56 53 60 60 56 41 57 60 69 69 68 64 66 65 66 64 61 63 61 53 53 54 65 71 67 62 56 55 46 39 39 45 52 47 57 67 71 72 72 72 75 74
52 51 52 58 57 58 58 45 48 55 65 64 65 61 59 64 63 62 58 59 63 60 53 51 55 69 71 70 69 58 53 57 50 43 42 47 54 64 66 69 71 71 73 69 69
45 48 56 63 63 60 52 47 52 63 67 65 55 60 53 58 57 57 56 64 63 68 63 57 51 65 73 71 66 64 64 52 46 40 37 44 47 53 63 66 70 70 70 70 69
48 52 64 64 63 55 46 48 58 68 68 63 58 58 57 55 56 54 57 61 63 65 63 57 52 57 62 59 59 58 54 52 50 46 41 39 45 58 63 66 67 68 71 71 72
44 50 63 65 53 45 47 55 60 66 69 66 63 61 57 57 55 55 57 57 64 63 55 56 51 48 57 65 66 60 57 53 46 45 43 43 45 62 62 64 64 66 71 74 74
39 41 58 62 46 45 52 59 62 63 63 63 60 61 61 54 50 56 56 62 63 60 54 56 48 43 50 57 61 56 58 54 49 45 45 43 46 66 63 61 63 63 67 68 72
41 43 50 52 50 47 46 51 55 65 62 63 58 59 56 52 53 50 53 61 63 61 62 56 47 47 43 49 52 52 57 56 51 43 45 46 50 59 57 55 59 60 61 61 62
41 43 45 42 47 46 45 51 53 54 60 57 53 55 51 45 48 48 52 55 61 61 57 51 44 46 50 54 55 55 55 55 52 52 47 53 52 51 52 53 56 59 60 60 60
41 41 44 42 45 46 46 44 50 53 53 51 51 54 52 46 47 46 49 47 50 54 50 50 43 45 46 55 55 52 54 56 58 59 53 53 50 50 54 56 58 56 57 57 59
44 44 44 43 43 42 43 48 51 51 55 57 54 51 49 51 53 54 54 53 54 51 49 46 43 41 39 51 50 44 52 57 57 55 53 44 46 51 52 53 55 53 55 55 57
MSLP
1019.44 1018.79 1018.24 1017.78 1017.32 1016.64 1015.91 1015.51 1015.13 1014.83 1014.42 1013.96 1013.54 1013.15 1012.90 1012.86 1012.74 1012.91 1011.68 1009.01 1008.78 1009.06 1009.25 1010.10 1010.48 1010.29 1010.13 1010.31 1010.47 1010.86 1011.85 1011.94 1010.65 1009.88 1009.04 1008.33 1008.72 1009.57 1009.42 1009.99 1010.60 1010.46 1010.76 1011.43 1012.99
1019.39 1018.84 1018.27 1017.63 1016.83 1016.21 1015.70 1015.29 1015.10 1014.64 1014.14 1013.71 1013.29 1012.98 1012.75 1012.67 1012.50 1011.42 1008.26 1008.23 1008.46 1008.92 1009.47 1009.93 1010.31 1010.25 1010.42 1010.43 1010.58 1010.87 1011.61 1011.34 1009.68 1008.73 1008.00 1008.25 1008.51 1008.84 1009.62 1010.26 1010.80 1010.80 1011.19 1012.03 1013.19
1019.42 1018.78 1018.12 1017.33 1016.62 1016.13 1015.68 1015.16 1014.72 1014.40 1013.89 1013.49 1013.08 1012.76 1012.54 1012.52 1011.80 1008.58 1007.25 1007.92 1008.42 1008.86 1009.24 1009.52 1009.78 1010.02 1010.37 1010.27 1010.22 1010.39 1010.70 1009.90 1008.73 1008.16 1007.79 1007.70 1008.34 1008.74 1009.23 1010.39 1010.17 1010.11 1011.22 1012.01 1012.86
1019.46 1018.81 1018.12 1017.38 1016.60 1015.89 1015.29 1014.82 1014.34 1013.91 1013.63 1013.25 1012.88 1012.51 1012.36 1012.31 1010.33 1007.31 1007.16 1007.68 1008.24 1008.95 1009.31 1009.56 1009.87 1010.17 1010.32 1010.10 1009.41 1009.95 1009.38 1008.96 1007.87 1007.09 1007.55 1007.78 1007.75 1008.44 1008.81 1008.42 1008.52 1009.22 1010.19 1011.31 1012.33
1019.35 1018.64 1017.81 1016.97 1016.29 1015.56 1014.85 1014.26 1013.90 1013.47 1013.25 1012.96 1012.62 1012.35 1012.34 1011.36 1008.93 1007.14 1007.11 1007.75 1008.52 1009.06 1009.34 1009.56 1009.76 1009.86 1009.78 1009.45 1009.04 1009.12 1008.62 1007.88 1006.85 1006.32 1006.78 1007.12 1007.35 1008.04 1008.46 1008.73 1008.73 1009.88 1010.76 1011.19 1011.78
1019.17 1018.47 1017.59 1016.69 1015.97 1015.22 1014.37 1013.63 1013.26 1012.97 1012.69 1012.50 1012.34 1012.32 1011.92 1010.14 1007.11 1007.19 1007.48 1008.23 1008.35 1008.88 1009.10 1009.26 1009.23 1009.19 1009.21 1008.94 1008.72 1008.00 1007.88 1007.26 1006.19 1005.88 1006.53 1006.84 1007.56 1008.19 1008.52 1008.96 1008.92 1009.69 1010.60 1011.10 1011.25
1019.17 1018.30 1017.41 1016.58 1015.70 1014.76 1013.95 1013.26 1012.67 1012.25 1012.03 1011.98 1012.02 1012.05 1011.24 1008.53 1007.17 1007.36 1007.50 1007.89 1008.17 1008.33 1008.69 1008.65 1008.67 1008.92 1009.12 1008.70 1008.19 1007.81 1007.57 1006.89 1006.23 1006.15 1006.84 1007.00 1008.40 1008.01 1008.02 1008.65 1008.99 1009.64 1010.10 1010.62 1010.91
1019.15 1018.31 1017.54 1016.52 1015.47 1014.31 1013.28 1012.70 1012.01 1011.51 1011.43 1011.67 1011.87 1011.77 1010.05 1007.42 1007.20 1007.53 1007.54 1007.58 1007.93 1008.12 1008.01 1007.97 1008.30 1008.80 1009.06 1008.54 1008.44 1008.46 1008.08 1007.71 1006.50 1006.20 1006.37 1006.73 1007.33 1007.28 1007.56 1008.19 1009.16 1009.30 1009.63 1009.89 1010.26
1019.22 1018.35 1017.42 1016.35 1015.33 1014.02 1012.79 1012.14 1011.57 1011.20 1011.32 1011.56 1011.80 1011.19 1008.84 1007.26 1007.32 1006.88 1006.90 1007.19 1007.50 1007.83 1007.84 1007.84 1008.17 1008.95 1009.06 1009.51 1009.71 1009.59 1008.92 1008.21 1007.09 1006.50 1006.59 1007.25 1007.60 1007.17 1007.74 1007.94 1008.54 1008.98 1009.05 1009.21 1009.67
1019.02 1018.03 1017.10 1016.13 1015.18 1013.93 1012.35 1011.41 1011.45 1011.42 1011.51 1011.35 1010.93 1010.76 1008.14 1007.18 1006.49 1006.31 1006.62 1006.84 1007.15 1007.35 1007.69 1007.93 1008.97 1009.62 1010.40 1010.53 1010.65 1010.08 1009.53 1008.74 1008.01 1006.92 1006.81 1007.15 1007.01 1007.07 1007.13 1007.47 1007.46 1008.25 1008.68 1008.95 1009.02
1018.91 1018.02 1017.05 1015.95 1014.90 1013.98 1012.48 1011.21 1012.11 1011.61 1011.02 1010.55 1009.66 1009.08 1007.78 1006.87 1005.99 1006.17 1006.28 1006.90 1007.39 1007.69 1008.35 1008.89 1009.74 1010.06 1010.23 1010.36 1010.07 1009.90 1009.60 1009.12 1007.84 1006.69 1006.80 1006.70 1006.86 1006.94 1006.48 1007.20 1007.64 1007.80 1008.30 1008.42 1008.02
1018.86 1018.00 1016.96 1015.76 1014.69 1013.89 1013.47 1013.16 1013.46 1013.55 1011.55 1009.09 1008.32 1007.94 1007.34 1007.22 1007.17 1006.02 1005.90 1007.00 1007.57 1008.22 1008.74 1009.57 1009.58 1009.26 1009.40 1009.62 1009.65 1009.44 1009.25 1008.54 1007.16 1006.55 1006.77 1006.57 1006.81 1006.50 1007.06 1006.58 1006.72 1006.60 1007.27 1007.48 1007.26
1018.93 1018.01 1017.17 1015.72 1014.52 1013.84 1014.14 1013.05 1012.74 1012.65 1012.10 1008.44 1007.33 1006.98 1006.69 1006.99 1006.88 1005.88 1005.81 1006.33 1007.05 1008.03 1008.68 1009.34 1008.69 1008.59 1008.95 1009.01 1009.25 1009.06 1009.09 1008.50 1008.18 1007.31 1007.11 1007.15 1007.33 1006.91 1006.42 1006.63 1006.90 1006.97 1006.39 1006.43 1006.29
1018.97 1018.14 1017.43 1015.97 1014.57 1014.97 1013.69 1012.59 1012.28 1012.16 1011.72 1008.13 1006.56 1005.69 1006.17 1006.23 1006.07 1005.13 1005.33 1006.16 1006.99 1007.63 1008.62 1008.76 1008.06 1008.08 1008.39 1008.57 1008.68 1008.56 1007.70 1007.78 1008.14 1008.25 1008.15 1007.83 1008.36 1007.31 1006.98 1006.67 1006.40 1005.77 1005.90 1005.39 1005.21
1018.72 1018.09 1017.52 1017.43 1016.57 1015.26 1013.21 1012.45 1012.00 1011.84 1010.70 1007.13 1005.79 1004.96 1005.58 1005.84 1005.28 1004.83 1004.77 1005.58 1006.54 1007.24 1008.17 1007.91 1007.60 1007.56 1007.67 1007.48 1007.69 1007.61 1007.28 1007.71 1008.15 1008.75 1008.98 1008.97 1009.16 1007.55 1006.83 1006.41 1005.87 1005.10 1004.56 1004.18 1003.82
1018.42 1017.77 1017.53 1017.06 1016.77 1014.22 1013.07 1012.67 1012.21 1012.05 1009.42 1006.73 1005.51 1005.40 1005.93 1005.53 1005.21 1004.93 1005.04 1005.36 1006.16 1007.07 1007.67 1007.50 1006.92 1006.89 1006.55 1006.23 1006.67 1006.87 1007.57 1008.48 1009.41 1009.88 1010.23 1009.62 1009.40 1008.09 1007.00 1005.54 1004.80 1003.77 1004.01 1003.86 1003.65
1017.84 1016.81 1017.18 1016.35 1014.81 1013.60 1013.00 1013.15 1013.09 1011.67 1008.98 1007.79 1006.75 1006.28 1006.17 1006.40 1006.11 1005.80 1005.97 1006.25 1006.91 1007.71 1008.01 1007.46 1006.69 1006.20 1005.87 1006.26 1006.31 1007.10 1008.56 1009.71 1010.63 1011.00 1011.22 1009.78 1009.68 1008.00 1005.93 1004.87 1004.35 1003.76 1002.72 1002.14 1002.09
1017.08 1015.93 1015.22 1014.54 1013.90 1013.66 1013.47 1013.63 1013.09 1011.15 1009.60 1008.32 1007.47 1006.62 1006.82 1007.08 1006.86 1006.66 1006.64 1007.10 1007.34 1007.97 1008.64 1008.20 1007.00 1005.68 1005.33 1005.56 1005.99 1006.90 1008.16 1009.85 1010.78 1011.62 1011.26 1010.27 1009.26 1006.92 1005.21 1004.25 1003.83 1003.39 1002.55 1001.74 1001.13
1016.66 1015.34 1014.93 1013.49 1013.38 1013.83 1013.95 1014.11 1012.71 1011.41 1010.13 1009.20 1008.09 1007.71 1007.97 1007.83 1007.91 1007.83 1007.88 1008.10 1008.20 1008.14 1008.79 1008.59 1007.14 1005.97 1005.51 1005.32 1005.73 1006.59 1007.81 1008.65 1010.11 1011.12 1011.07 1009.95 1008.60 1006.60 1005.02 1004.38 1003.45 1002.68 1001.88 1001.66 1001.30
1017.70 1016.31 1014.48 1013.13 1013.05 1013.68 1014.17 1014.17 1012.80 1011.43 1010.42 1009.58 1009.10 1008.68 1009.11 1009.16 1009.04 1008.72 1008.74 1008.82 1009.10 1008.60 1008.53 1008.72 1007.90 1006.41 1004.93 1005.01 1005.43 1006.01 1007.02 1008.71 1010.47 1011.20 1011.09 1010.02 1008.85 1006.86 1005.35 1004.37 1003.66 1003.11 1002.26 1001.84 1001.39
1017.78 1016.43 1014.01 1013.12 1013.35 1014.27 1014.88 1014.20 1012.60 1011.17 1010.62 1009.97 1009.43 1009.37 1009.40 1009.78 1009.69 1009.71 1009.78 1010.20 1010.15 1009.61 1009.17 1009.14 1009.34 1007.78 1006.70 1006.05 1005.94 1006.54 1007.25 1008.54 1009.92 1010.75 1011.00 1010.37 1008.94 1006.39 1005.42 1004.67 1004.07 1003.37 1002.50 1001.71 1001.39
1018.98 1017.17 1013.99 1013.18 1014.45 1015.46 1015.31 1014.06 1012.70 1011.40 1010.47 1010.13 1009.84 1009.74 1009.94 1010.20 1010.37 1010.47 1010.84 1011.16 1010.88 1010.71 1010.80 1010.50 1010.36 1009.65 1008.17 1006.84 1006.50 1006.62 1007.05 1008.02 1009.81 1010.58 1010.65 1009.91 1008.04 1005.99 1005.98 1005.98 1005.59 1005.00 1004.10 1003.39 1002.46
1020.73 1018.61 1014.74 1014.16 1015.43 1016.07 1015.36 1014.26 1013.19 1012.19 1011.44 1011.00 1010.96 1010.92 1010.94 1011.28 1011.56 1011.69 1012.00 1012.36 1011.92 1011.85 1012.07 1011.65 1011.53 1011.03 1009.57 1008.11 1007.33 1007.39 1007.66 1008.34 1009.28 1010.06 1010.25 1009.82 1008.07 1006.23 1006.51 1006.76 1006.57 1006.23 1005.65 1004.81 1003.96
1021.25 1019.68 1017.14 1016.34 1016.60 1016.55 1016.18 1015.03 1013.80 1012.58 1012.17 1012.07 1012.42 1012.06 1012.21 1012.68 1012.78 1013.12 1013.06 1012.82 1012.82 1012.74 1012.50 1012.30 1012.60 1012.31 1011.65 1010.69 1010.22 1009.27 1008.81 1008.90 1009.39 1010.21 1009.69 1009.11 1008.30 1007.78 1007.81 1008.20 1007.43 1007.08 1006.95 1006.32 1005.71
1021.78 1020.99 1020.10 1018.84 1018.10 1017.62 1016.89 1015.79 1014.79 1013.89 1013.09 1013.18 1013.61 1013.81 1013.81 1014.16 1014.24 1014.28 1014.19 1014.04 1013.59 1013.57 1013.30 1013.58 1013.79 1013.07 1012.34 1011.69 1010.89 1010.08 1009.58 1009.37 1009.43 1009.07 1009.51 1008.91 1008.90 1009.03 1009.34 1009.14 1008.62 1008.27 1007.98 1007.15 1006.20
1021.99 1021.66 1020.76 1019.94 1019.06 1018.31 1017.57 1016.95 1015.99 1015.02 1014.47 1014.35 1014.57 1014.72 1014.57 1015.22 1015.55 1015.46 1015.14 1014.89 1014.58 1014.18 1014.25 1014.33 1014.20 1013.70 1013.02 1011.99 1011.23 1010.51 1010.03 1009.41 1008.90 1008.62 1008.50 1008.75 1009.27 1009.97 1009.82 1009.65 1009.32 1009.30 1008.73 1008.02 1007.29
1022.10 1021.78 1021.44 1020.57 1019.74 1019.15 1018.41 1017.57 1016.85 1016.18 1015.54 1015.06 1015.12 1015.29 1015.60 1015.77 1015.81 1015.62 1015.36 1015.12 1014.72 1014.52 1014.43 1014.71 1014.41 1014.34 1013.20 1012.46 1011.61 1010.45 1009.40 1008.69 1008.64 1009.09 1009.38 1009.87 1010.56 1010.53 1010.00 1009.80 1009.64 1009.85 1009.57 1008.79 1008.02
Wind_Speed
21 21 21 20 18 18 20 19 19 18 16 16 14 13 10 8 7 3 6 11 7 9 7 7 2 2 2 1 1 3 5 3 5 3 5 6 6 3 2 11 2 4 6 12 18
22 21 21 21 20 19 20 20 18 17 17 16 15 12 9 6 2 7 11 10 6 13 6 6 4 3 2 1 1 5 4 9 6 4 4 4 5 10 6 10 1 6 12 19 19
22 23 22 23 23 20 19 19 19 17 17 16 14 11 6 2 3 7 9 12 11 10 3 5 5 3 0 1 5 5 6 6 7 11 10 3 6 7 11 7 9 21 20 22 21
23 23 23 23 23 21 20 19 19 18 16 15 13 8 3 2 3 1 8 14 10 9 3 5 4 4 2 5 4 3 9 8 10 10 8 6 6 7 15 7 15 22 25 22 22
24 25 25 24 23 22 21 21 19 18 15 13 11 4 2 3 9 3 10 14 8 7 6 5 4 4 2 4 3 4 6 6 14 10 12 10 10 5 15 1 15 16 19 21 20
24 25 25 25 25 24 23 23 19 16 15 11 8 3 1 3 3 7 11 9 7 6 5 6 7 7 4 4 2 4 5 8 10 5 8 12 3 8 7 9 17 17 17 18 20
24 25 26 26 26 26 24 23 21 18 13 8 6 3 2 13 2 7 9 8 5 7 5 5 5 1 1 6 2 5 7 7 3 3 3 10 4 15 7 14 18 19 16 15 18
24 25 26 26 27 28 27 24 22 15 4 6 8 2 7 3 4 6 2 3 5 6 4 4 5 3 5 3 8 6 4 3 5 6 3 11 13 8 18 20 18 20 17 17 17
24 25 26 27 28 29 29 25 17 3 5 8 3 2 8 1 2 6 7 4 5 4 4 3 3 1 6 5 6 7 2 2 8 5 4 5 7 5 14 19 20 19 19 19 16
25 26 27 28 27 29 30 20 1 5 2 4 3 3 5 1 2 5 3 3 2 2 2 4 6 4 5 6 4 3 4 4 5 3 2 8 11 8 18 21 23 20 18 19 19
25 26 28 28 29 27 16 4 9 6 0 8 6 4 6 7 4 1 4 6 3 5 2 4 5 5 8 7 3 2 3 5 7 8 3 4 8 14 21 14 15 16 17 19 22
25 27 28 30 28 27 4 6 5 6 12 10 11 10 5 4 5 4 7 6 6 5 3 6 6 10 4 3 4 3 4 10 9 5 4 6 6 5 11 22 19 20 18 21 22
25 26 27 31 32 4 2 2 2 3 3 10 4 4 5 10 8 8 6 4 4 5 4 6 8 3 3 3 3 4 4 7 10 6 3 2 6 3 6 8 10 9 18 19 23
24 24 24 31 3 6 6 5 6 2 5 8 4 5 5 6 4 9 7 6 1 9 8 5 5 5 2 6 7 6 8 11 6 2 3 3 5 5 5 11 15 21 17 21 23
26 24 21 10 6 4 6 9 9 4 4 3 0 2 3 8 3 2 6 4 8 6 6 10 4 5 2 8 7 11 3 7 4 3 4 4 3 9 3 5 11 20 24 22 26
26 24 19 2 2 8 9 8 4 7 4 7 2 0 2 3 3 2 3 5 3 4 3 9 2 6 8 6 8 5 3 5 5 4 2 7 7 7 5 9 5 6 12 18 19
29 28 12 3 5 4 5 5 7 4 5 7 5 6 3 4 6 2 4 4 6 3 5 5 9 4 5 3 1 5 7 4 6 6 7 2 4 10 8 8 9 12 14 12 15
31 28 6 6 2 5 4 6 2 3 4 4 5 7 6 5 3 8 3 3 4 6 3 2 10 6 5 8 7 2 8 7 7 5 7 2 5 8 10 10 9 11 12 15 15
27 4 3 4 6 2 6 3 7 5 4 7 9 6 4 6 2 4 4 2 3 2 1 1 10 5 3 3 6 3 3 5 2 2 3 4 7 9 6 8 8 10 10 10 8
5 5 5 3 5 5 6 4 3 3 6 3 2 3 2 4 3 4 3 3 7 4 4 4 8 6 15 4 1 6 5 1 3 3 5 5 3 6 8 9 8 10 8 8 7
3 5 4 4 3 6 3 6 5 4 5 3 3 4 3 2 1 2 1 3 6 7 6 1 3 8 3 2 7 1 3 4 5 6 6 3 7 8 8 8 9 9 8 6 6
4 3 4 3 5 1 1 3 7 6 4 4 3 2 2 2 1 1 4 5 12 4 2 3 2 5 8 6 4 3 5 5 6 5 3 4 8 3 5 9 8 10 15 16 11
3 4 6 3 1 2 5 5 3 5 5 6 7 4 4 2 1 5 6 1 9 7 4 5 2 4 11 9 5 4 3 5 5 3 4 5 7 5 8 10 11 11 17 19 20
2 5 6 5 2 3 3 4 6 5 0 4 5 4 5 6 7 4 6 4 4 6 6 4 1 6 7 5 2 7 8 2 4 3 5 7 6 8 8 12 16 14 15 15 16
2 2 1 4 3 3 1 2 3 5 3 8 5 6 3 4 6 6 2 4 5 5 6 5 3 2 5 7 7 9 4 8 5 8 7 7 8 2 7 9 9 7 13 15 19
2 3 5 3 4 4 5 2 3 6 3 1 5 2 6 5 2 4 4 3 5 3 1 1 4 2 6 7 8 6 8 11 13 12 7 6 6 2 7 7 9 9 17 17 16
2 2 3 3 4 1 0 4 4 6 4 4 1 4 4 2 3 8 8 7 9 6 4 4 4 1 6 6 7 9 11 11 2 7 4 2 4 8 14 16 13 11 14 16 17
Wind_Direction
348 348 344 339 335 335 342 342 339 335 329 322 316 311 307 301 296 153 232 216 184 139 103 109 10 177 82 15 158 123 54 275 268 184 224 182 105 329 95 134 239 213 132 152 142
347 344 340 336 338 339 337 334 332 329 326 322 316 311 305 307 246 228 246 182 159 138 112 140 160 152 74 225 230 111 124 219 247 248 252 117 101 155 122 161 301 90 91 131 139
344 342 338 337 337 333 329 326 325 326 325 320 314 309 296 296 299 250 185 178 174 165 143 155 120 113 287 253 191 174 185 231 263 228 257 281 138 162 128 216 219 153 149 152 154
343 339 337 333 331 328 324 322 320 322 321 316 310 305 290 224 146 146 162 165 158 153 135 119 90 114 215 211 213 165 236 184 257 230 203 202 140 165 176 224 165 160 159 156 164
341 338 335 332 330 326 321 317 315 314 312 309 302 277 249 353 253 39 103 140 115 128 169 151 138 172 242 226 268 170 228 222 247 255 206 156 185 173 200 311 140 151 158 166 171
339 335 334 331 328 325 320 314 313 307 303 294 279 192 216 292 238 129 114 129 152 150 175 163 185 202 255 242 186 236 210 254 278 270 165 161 120 128 190 161 148 167 169 179 180
339 335 334 330 325 322 318 315 313 308 296 265 223 213 129 237 22 151 142 165 176 163 169 209 166 108 12 287 234 281 319 340 292 120 100 102 108 224 155 161 164 179 185 179 193
338 335 330 328 325 321 318 319 316 313 273 192 180 222 242 241 115 137 188 206 168 216 206 170 166 209 178 301 1 8 42 27 273 117 230 130 236 228 164 157 181 186 190 196 198
336 331 329 328 326 322 318 319 315 42 137 153 146 190 268 142 191 214 168 208 145 200 248 248 166 171 24 77 6 1 253 292 327 198 101 132 253 207 177 171 183 191 195 200 206
336 333 330 328 326 323 319 309 215 109 171 199 250 348 292 67 287 173 228 159 186 138 18 80 53 63 42 62 210 246 347 318 276 295 121 198 237 186 183 185 188 192 195 205 208
335 332 329 328 327 327 337 29 11 348 101 213 222 253 291 295 328 24 161 114 356 47 190 3 58 240 237 195 199 256 218 264 255 258 248 251 221 199 198 195 189 190 202 210 218
334 331 329 327 325 323 296 67 98 248 303 264 243 239 245 67 321 289 128 139 146 194 108 19 248 238 238 192 215 237 308 294 291 329 160 304 287 227 185 206 201 193 199 214 226
331 329 330 325 321 352 309 212 28 323 292 299 219 195 209 142 211 258 142 131 153 155 176 169 234 102 163 297 267 250 209 256 231 337 318 28 321 207 192 199 219 233 222 219 219
326 327 331 329 14 324 299 324 325 228 33 279 289 276 127 140 252 214 169 141 96 199 160 229 277 222 244 257 161 277 210 231 243 135 218 83 272 300 201 230 221 223 217 224 224
323 324 326 327 294 309 284 337 321 61 10 324 289 102 156 153 225 279 173 97 182 198 116 245 241 269 210 232 156 237 155 206 209 158 80 334 89 267 331 265 230 226 223 224 224
319 319 327 156 236 248 309 316 42 44 267 340 83 125 169 246 297 52 100 64 164 203 196 241 242 173 216 260 175 253 133 43 37 100 61 237 162 271 238 223 284 264 199 224 229
317 314 307 221 230 320 309 34 41 135 330 344 327 337 127 329 349 188 170 176 187 132 254 334 261 232 178 264 7 86 62 334 341 353 228 286 66 242 258 243 227 268 282 245 223
319 313 212 217 248 344 38 49 164 261 287 345 313 327 99 10 24 348 93 229 335 30 56 184 322 182 169 183 198 189 151 154 227 225 247 1 247 247 226 267 252 249 255 274 267
319 316 272 266 184 171 72 80 213 214 334 330 324 56 20 348 86 27 26 37 70 135 162 136 265 310 237 223 127 277 207 194 155 52 68 225 294 301 278 290 308 315 350 330 285
320 335 294 314 161 62 74 234 252 238 343 320 287 79 104 301 44 31 360 12 348 358 153 270 295 245 278 115 195 162 176 24 14 258 267 284 264 234 293 290 301 319 331 317 320
12 12 275 68 58 47 142 237 283 277 318 274 272 290 74 107 64 355 316 88 338 315 318 17 158 289 355 196 219 295 259 63 120 147 187 222 264 223 246 260 253 277 286 257 267
348 6 313 15 41 26 194 218 300 324 335 310 252 304 138 132 118 301 113 24 334 338 46 317 175 278 243 269 260 231 232 157 136 252 216 164 259 261 295 307 323 324 325 326 303
5 277 306 59 128 321 307 304 271 328 340 358 8 11 8 31 29 42 28 54 16 35 32 326 322 356 334 342 6 44 4 103 113 70 224 165 255 317 31 7 359 346 350 339 338
12 355 324 38 46 112 19 292 322 307 93 33 10 26 45 27 18 45 10 15 12 3 356 152 138 172 199 246 352 302 317 293 140 148 229 223 262 297 351 346 334 350 353 346 350
33 313 160 322 340 356 299 277 318 337 30 25 30 35 321 52 7 6 4 322 311 24 14 75 290 244 248 263 282 275 299 319 252 227 197 251 241 0 329 314 312 346 345 352 360
60 24 349 286 322 330 359 40 340 313 336 51 101 24 68 99 127 306 344 11 248 302 147 308 267 266 265 267 261 259 294 275 272 269 251 258 257 13 301 309 338 2 354 352 353
317 333 107 292 334 16 311 302 343 337 25 41 193 123 121 159 239 233 221 230 234 250 203 209 199 220 257 222 308 284 226 236 292 41 331 351 343 344 344 340 338 6 354 343 340